Location: Leiter
(44.7178°N, 106.2687°W)
Time: 17:28:02
(UTC+00:00)

STARS - Pass Details

Date: 05 July 2022
Orbit: 620 x 637 km, 98.2° (Epoch: 18 August)

Event Time Altitude Azimuth Distance (km) Brightness Sun altitude
Rises 06:06:02 0° 10° (N) 2,930 ? -21.0°
Reaches altitude 10° 06:08:15 10° 8° (N) 2,015 ? -21.1°
Maximum altitude 06:12:36 65° 287° (WNW) 690 ? -21.3°
Enters shadow 06:13:52 43° 223° (SW) 886 ? -21.3°
